This demonstration page uses our WeatherBlox Daily Observations layout. Learn more.

Left ArrowRight Arrow

44.8408, -93.29828

Hourly Observations for April 20, 2017

Temp ( °F °C ) Dew Point ( °F °C ) Humidity (%) Winds ( mph kmh ) Pressure ( in mb ) Visibility ( mi km ) Precip ( " mm )
12:15 am 00:15 Cloudy 46 7.8 43 6.1 89 89 NE 9 15 29.91 1013 10 16 0.00 0.00
12:53 am 00:53 Cloudy with Thunderstorms 46 7.8 43 6.1 89 89 NNW 8 13 29.91 1013 10 16 0.00 0.00
1:27 am 01:27 Cloudy with Light Rain 45 7.2 42 5.6 90 90 N 10 17 29.88 1012 8 13 0.17 4.32
1:44 am 01:44 Cloudy 45 7 43 6 93 93 N 12 19 29.88 1012 10 16 0.00 0.00
1:53 am 01:53 Cloudy 44 6.7 41 5 89 89 N 10 17 29.86 1011 10 16 0.17 4.32
2:53 am 02:53 Cloudy with Light Rain 42 5.6 40 4.4 92 92 N 9 15 29.87 1012 3 4 0.00 0.03
3:53 am 03:53 Cloudy with Light Rain 41 5 39 3.9 93 93 N 14 22 29.87 1011 4 6 0.02 0.51
4:53 am 04:53 Cloudy with Mist and Fog 41 5 38 3.3 89 89 N 13 20 29.85 1011 5 8 0.01 0.25
5:53 am 05:53 Cloudy 41 5 38 3.3 89 89 N 9 15 29.88 1012 10 16 0.00 0.00
6:53 am 06:53 Cloudy with Drizzle 41 5 38 3.3 89 89 N 8 13 29.88 1012 4 6 0.00 0.03
7:53 am 07:53 Cloudy with Mist and Fog 41 5 38 3.3 89 89 NW 7 11 29.89 1012 6 10 0.00 0.03
8:05 am 08:05 Cloudy with Drizzle 40 4.4 38 3.3 93 93 NW 7 11 29.91 1013 2 3 0.00 0.03
8:30 am 08:30 Cloudy with Drizzle 41 5 37 3 87 87 NW 10 17 29.91 1013 2 3 0.00 0.00
8:43 am 08:43 Cloudy with Drizzle 41 5 38 3.3 89 89 NW 9 15 29.91 1013 3 4 0.00 0.03
8:53 am 08:53 Cloudy with Drizzle 41 5 39 3.9 93 93 NW 10 17 29.90 1012 3 4 0.00 0.03
9:32 am 09:32 Cloudy 43 6 39 4 87 87 WNW 13 20 29.91 1013 8 13 0.00 0.00
9:46 am 09:46 Cloudy 43 6 39 4 87 87 NW 12 19 29.91 1013 10 16 0.00 0.00
9:53 am 09:53 Cloudy 43 6.1 39 3.9 86 86 WNW 10 17 29.90 1013 10 16 0.00 0.03
10:19 am 10:19 Cloudy 42 5.6 39 3.9 89 89 NW 14 22 29.91 1013 10 16 0.00 0.00
10:53 am 10:53 Cloudy 43 6.1 39 3.9 86 86 NW 13 20 29.91 1013 9 14 0.00 0.00
11:53 am 11:53 Cloudy 45 7.2 39 3.9 80 80 NW 15 24 29.91 1013 10 16 0.00 0.00
12:53 pm 12:53 Cloudy 45 7.2 38 3.3 77 77 NW 16 26 29.91 1013 10 16 0.00 0.00
1:53 pm 13:53 Cloudy 46 7.8 37 2.8 71 71 WNW 16 26 29.92 1013 10 16 0.00 0.00
2:53 pm 14:53 Cloudy 46 7.8 37 2.8 71 71 NW 20 31 29.94 1014 10 16 0.00 0.00
3:28 pm 15:28 Cloudy 46 8 37 3 71 71 NW 17 28 29.94 1014 10 16 0.00 0.00
3:53 pm 15:53 Cloudy 48 8.9 36 2.2 63 63 NW 17 28 29.94 1014 10 16 0.00 0.00
4:53 pm 16:53 Cloudy 50 10 35 1.7 57 57 N 16 26 29.96 1015 10 16 0.00 0.00
5:53 pm 17:53 Cloudy 50 10 36 2.2 59 59 NW 14 22 29.99 1016 10 16 0.00 0.00
6:53 pm 18:53 Mostly Cloudy 50 10 35 1.7 57 57 NNW 15 24 30.01 1016 10 16 0.00 0.00
7:53 pm 19:53 Partly Cloudy 48 8.9 35 1.7 61 61 NNW 13 20 30.03 1017 10 16 0.00 0.00
8:53 pm 20:53 Mostly Clear 46 7.8 37 2.8 71 71 NNW 9 15 30.06 1018 10 16 0.00 0.00
9:53 pm 21:53 Clear 45 7.2 37 2.8 74 74 NNW 7 11 30.09 1019 10 16 0.00 0.00
10:53 pm 22:53 Clear 44 6.7 37 2.8 76 76 NNW 6 9 30.10 1019 10 16 0.00 0.00
11:53 pm 23:53 Mostly Clear 43 6.1 36 2.2 76 76 NNW 8 13 30.11 1020 10 16 0.00 0.00

Powered by AerisWeather